[[{"header":{"parameterUnit":"m.s-1","parameterCategory":1,"la1":30.2991,"la2":30.254,"lo1":-89.0895,"lo2":-89.0444,"dy":0.0017,"dx":0.0017,"nx":28,"ny":28,"refTime":"2024-08-10T09:00:00:Z","depth":0,"parameterNumber":2,"parameterNumberName":"U-component_of_WINDS"},"data":[0,0,0,0,0,0,0,0,0,0,0,0,0,0,0,0,0,0,0,0,0,0,0,0,0,0,0,0,0,0,0,0,0,0,0,0,0,0,0,0,0,0,0,0,0,0,0,0,0,0,0,0,0,0,0,0,0,0,-0.2145,-0.2144,0,-0.2051,-0.205,-0.2049,-0.1998,-0.1998,-0.1998,-0.1998,-0.1899,-0.1897,-0.1894,0,0,0,0,0,0,0,0,0,0,0,0,0,-0.2277,-0.2275,-0.2145,-0.2144,-0.2143,-0.2051,-0.205,-0.2049,-0.1998,-0.1998,-0.1998,-0.1998,-0.19,-0.1897,-0.1894,0,0,0,0,0,0,0,0,0,0,0,0,0,-0.2205,-0.2275,-0.2145,-0.2106,-0.2102,-0.2052,-0.205,-0.2048,-0.1998,-0.1998,-0.1998,-0.1998,-0.1901,-0.1897,-0.1894,-0.1874,0,0,-0.1882,-0.188,0,0,0,0,0,0,0,0,-0.221,-0.2201,-0.2113,-0.2109,-0.2104,-0.2036,-0.2061,-0.199,-0.1998,-0.2038,-0.1998,-0.1998,-0.1945,-0.1937,-0.192,-0.1869,-0.1865,-0.1882,-0.1879,-0.1878,-0.1877,0,0,0,0,0,0,0,-0.2215,-0.2204,-0.2108,-0.2112,-0.2106,-0.2093,-0.2082,-0.2047,-0.1993,-0.2034,-0.203,-0.202,-0.1942,-0.1924,-0.1917,-0.1863,-0.1882,-0.1879,-0.1876,-0.1875,-0.1791,-0.1791,0,0,0,0,0,0,-0.2226,-0.2209,-0.2111,-0.2105,-0.2158,-0.2091,-0.2079,-0.2058,-0.1993,-0.1983,-0.202,-0.2018,-0.193,-0.1922,-0.1914,-0.1886,-0.1878,-0.1874,-0.1872,-0.1791,-0.1791,-0.1791,0,0,0,0,0,0,-0.2229,-0.2218,-0.2114,-0.2156,-0.2142,-0.2089,-0.2066,-0.2056,-0.2038,-0.1983,-0.1973,-0.2012,-0.193,-0.1919,-0.1884,-0.1882,-0.1873,-0.1869,-0.1791,-0.1791,-0.1791,-0.1832,0,0,0,0,0,0,-0.2233,-0.2219,-0.2212,-0.2156,-0.214,-0.2088,-0.2065,-0.2055,-0.2032,-0.2028,-0.1972,-0.1963,-0.1929,-0.189,-0.1881,-0.1877,-0.1866,-0.1791,-0.1791,-0.1791,-0.183,-0.1833,-0.1835,0,0,0,0,0,-0.2238,-0.2226,-0.2212,-0.22,-0.2129,-0.2088,-0.2078,-0.204,-0.2032,-0.2024,-0.1988,-0.1964,-0.1884,-0.1887,-0.1876,-0.1871,-0.1791,-0.1791,-0.1791,-0.1829,-0.1832,-0.1835,0,0,0,0,0,0,-0.2282,-0.2218,-0.2201,-0.2171,-0.2135,-0.2079,-0.2067,-0.2045,-0.201,-0.2008,-0.1961,-0.1949,-0.1919,-0.1891,-0.1896,-0.1848,-0.1835,-0.1833,-0.1868,-0.187,-0.1873,-0.188,-0.1863,0,0,0,0,0,-0.2289,-0.2261,-0.2206,-0.2185,-0.2168,-0.2121,-0.2101,-0.2075,-0.2036,-0.202,-0.1982,-0.1944,-0.191,-0.1888,-0.1854,-0.1826,-0.1813,-0.1817,-0.182,-0.1822,-0.1821,-0.1804,-0.1805,-0.1792,-0.1792,-0.1792,0,0,-0.2301,-0.2263,-0.2248,-0.2193,-0.2162,-0.2134,-0.2108,-0.2079,-0.2058,-0.2015,-0.198,-0.1951,-0.1905,-0.1874,-0.1858,-0.185,-0.1821,-0.1822,-0.1824,-0.1822,-0.1804,-0.1805,-0.1807,-0.1792,-0.1792,-0.1792,0,0,-0.231,-0.2279,-0.2258,-0.2227,-0.2181,-0.215,-0.2145,-0.2092,-0.2071,-0.2036,-0.2003,-0.1976,-0.1919,-0.1888,-0.1864,-0.1861,-0.1838,-0.1851,-0.1865,-0.1849,-0.185,-0.1851,-0.185,-0.1851,-0.185,-0.185,-0.185,0,-0.2332,-0.2289,-0.2249,-0.2222,-0.2199,-0.216,-0.2138,-0.211,-0.2055,-0.2039,-0.2031,-0.1958,-0.1924,-0.1885,-0.1885,-0.1867,-0.186,-0.1858,-0.1854,-0.1854,-0.1854,-0.1853,-0.1852,-0.1852,-0.1852,-0.1852,-0.1852,0,-0.2317,-0.2288,-0.2276,-0.2225,-0.22,-0.2176,-0.2132,-0.2111,-0.2087,-0.2057,-0.2021,-0.1979,-0.1936,-0.1925,-0.1901,-0.1882,-0.1878,-0.1863,-0.1848,-0.1858,-0.1856,-0.1855,-0.1855,-0.1854,-0.1854,-0.1853,0,0,-0.2352,-0.2279,-0.2276,-0.2252,-0.2198,-0.2174,-0.2148,-0.2106,-0.209,-0.2052,-0.2029,-0.1981,-0.1966,-0.194,-0.1912,-0.1898,-0.1899,-0.1883,-0.1881,-0.1888,-0.1876,-0.1889,-0.1889,-0.1883,-0.1882,-0.1882,-0.188,0,-0.2353,-0.2305,-0.2269,-0.2234,-0.2207,-0.2169,-0.2146,-0.211,-0.2081,-0.2052,-0.2019,-0.1987,-0.1969,-0.1953,-0.1937,-0.1902,-0.1896,-0.1901,-0.186,-0.1859,-0.1874,-0.1888,-0.1901,-0.1901,-0.1879,-0.1878,-0.1878,0,-0.2349,-0.2314,-0.2277,-0.2227,-0.2214,-0.2194,-0.2153,-0.2126,-0.2084,-0.2064,-0.2035,-0.2006,-0.1976,-0.1964,-0.1922,-0.1927,-0.1907,-0.1887,-0.1886,-0.1881,-0.187,-0.1883,-0.1899,-0.19,-0.1877,-0.1877,-0.1877,0,-0.2378,-0.2322,-0.2293,-0.2274,-0.2214,-0.2201,-0.2175,-0.2133,-0.211,-0.2074,-0.2059,-0.202,-0.1998,-0.1968,-0.1929,-0.1924,-0.1891,-0.1876,-0.1873,-0.1874,-0.1868,-0.1869,-0.1882,-0.1855,-0.1855,-0.1855,-0.1855,0,-0.2384,-0.2363,-0.2306,-0.2288,-0.2263,-0.2221,-0.2197,-0.2168,-0.2131,-0.2106,-0.2071,-0.2048,-0.1998,-0.1969,-0.1938,-0.1908,-0.1898,-0.188,-0.1873,-0.1884,-0.1886,-0.1871,-0.187,-0.1855,-0.1855,-0.1855,-0.1855,0,-0.2413,-0.2374,-0.234,-0.2286,-0.2272,-0.2256,-0.2209,-0.219,-0.2159,-0.2128,-0.2118,-0.2069,-0.2033,-0.1991,-0.1941,-0.192,-0.1893,-0.1881,-0.1907,-0.1903,-0.1902,-0.1903,-0.1906,-0.1904,-0.1879,-0.1879,-0.1879,0,-0.242,-0.2403,-0.2348,-0.2329,-0.2305,-0.2275,-0.2252,-0.2209,-0.2187,-0.2138,-0.2125,-0.2086,-0.2053,-0.1997,-0.1957,-0.1918,-0.1905,-0.1909,-0.1899,-0.1912,-0.1906,-0.1908,-0.1906,-0.1912,-0.1913,-0.1913,-0.1913,0,-0.2436,-0.2418,-0.2387,-0.2349,-0.2322,-0.229,-0.2256,-0.2243,-0.2193,-0.2169,-0.2133,-0.2107,-0.2057,-0.2019,-0.1976,-0.1948,-0.1922,-0.1917,-0.1914,-0.1926,-0.1942,-0.1934,-0.1915,-0.1917,-0.1916,-0.1916,-0.1916,-0.1916,-0.2455,-0.2438,-0.2397,-0.2363,-0.2333,-0.2302,-0.2282,-0.2248,-0.2217,-0.2174,-0.215,-0.2114,-0.2072,-0.2011,-0.1984,-0.1955,-0.1946,-0.1942,-0.1941,-0.1941,-0.1945,-0.1946,-0.1947,-0.1947,-0.1946,-0.1946,-0.1946,0,-0.247,-0.2441,-0.2411,-0.2365,-0.2338,-0.2317,-0.2279,-0.2258,-0.2227,-0.219,-0.2159,-0.2116,-0.208,-0.2036,-0.1996,-0.1981,-0.1968,-0.1972,-0.1973,-0.1967,-0.1955,-0.1961,-0.1983,-0.1983,-0.1983,-0.1983,-0.1983,-0.1983,-0.2475,-0.2446,-0.2422,-0.2377,-0.2349,-0.2314,-0.2294,-0.2265,-0.2235,-0.219,-0.216,-0.2132,-0.2092,-0.205,-0.2015,-0.2003,-0.199,-0.1997,-0.1982,-0.1971,-0.1968,-0.1965,-0.1971,-0.1995,-0.1995,-0.1997,-0.1997,-0.1997]},{"header":{"parameterUnit":"m.s-1","parameterCategory":1,"la1":30.2991,"la2":30.254,"lo1":-89.0895,"lo2":-89.0444,"dy":0.0017,"dx":0.0017,"nx":28,"ny":28,"refTime":"2024-08-10T09:00:00:Z","depth":0,"parameterNumber":3,"parameterNumberName":"V-component_of_WINDS"},"data":[0,0,0,0,0,0,0,0,0,0,0,0,0,0,0,0,0,0,0,0,0,0,0,0,0,0,0,0,0,0,0,0,0,0,0,0,0,0,0,0,0,0,0,0,0,0,0,0,0,0,0,0,0,0,0,0,0,0,0.102,0.102,0,0.1029,0.1029,0.1029,0.1023,0.1023,0.1023,0.1023,0.1032,0.1033,0.1033,0,0,0,0,0,0,0,0,0,0,0,0,0,0.0995,0.0996,0.102,0.102,0.102,0.1029,0.1029,0.1029,0.1023,0.1023,0.1023,0.1022,0.1032,0.1033,0.1033,0,0,0,0,0,0,0,0,0,0,0,0,0,0.1005,0.0996,0.102,0.1018,0.1018,0.1029,0.1029,0.1029,0.1023,0.1023,0.1023,0.1022,0.1032,0.1033,0.1033,0.1046,0,0,0.1036,0.1036,0,0,0,0,0,0,0,0,0.1005,0.1006,0.1018,0.1018,0.1018,0.1024,0.1024,0.1035,0.1024,0.1021,0.1023,0.1022,0.103,0.1031,0.1034,0.1047,0.1047,0.1036,0.1036,0.1037,0.1037,0,0,0,0,0,0,0,0.1004,0.1006,0.1023,0.1018,0.1018,0.1016,0.1017,0.1026,0.1028,0.1022,0.1021,0.1022,0.103,0.1033,0.1034,0.1047,0.1036,0.1037,0.1037,0.1037,0.1068,0.1069,0,0,0,0,0,0,0.1004,0.1005,0.1023,0.1023,0.101,0.1017,0.1018,0.1023,0.1028,0.1028,0.1023,0.1022,0.1032,0.1033,0.1034,0.1047,0.1037,0.1037,0.1038,0.1068,0.1068,0.1069,0,0,0,0,0,0,0.1003,0.1005,0.1023,0.1014,0.1016,0.1018,0.1023,0.1023,0.1026,0.1029,0.1029,0.1025,0.1032,0.1033,0.1043,0.1048,0.1038,0.1038,0.1067,0.1068,0.1069,0.1075,0,0,0,0,0,0,0.1002,0.1005,0.1011,0.1014,0.1017,0.1031,0.1024,0.1024,0.1027,0.1027,0.1031,0.1032,0.1031,0.1041,0.1043,0.1049,0.1039,0.1067,0.1068,0.1068,0.1075,0.1076,0.1077,0,0,0,0,0,0.1002,0.1013,0.1011,0.1013,0.1024,0.1032,0.1033,0.1033,0.1028,0.1033,0.1034,0.1031,0.1047,0.1043,0.1045,0.105,0.1067,0.1068,0.1068,0.1074,0.1076,0.1077,0,0,0,0,0,0,0.1011,0.1014,0.1011,0.1024,0.1028,0.1031,0.1037,0.1035,0.104,0.1039,0.1038,0.1039,0.1048,0.105,0.1045,0.1061,0.1056,0.1057,0.106,0.1061,0.1063,0.1062,0.104,0,0,0,0,0,0.1014,0.1021,0.1023,0.1034,0.1036,0.1036,0.104,0.1039,0.1042,0.1044,0.1046,0.1049,0.1054,0.1058,0.1063,0.1075,0.1075,0.108,0.1081,0.1082,0.1083,0.1087,0.1088,0.1071,0.1071,0.1071,0,0,0.1021,0.1024,0.1028,0.1036,0.1038,0.1044,0.1037,0.1045,0.1049,0.1045,0.1053,0.1055,0.1058,0.1068,0.1073,0.107,0.1087,0.1083,0.1084,0.1084,0.1088,0.1089,0.1091,0.1072,0.1072,0.1072,0,0,0.1037,0.1041,0.1049,0.1051,0.1054,0.1054,0.1056,0.1059,0.1059,0.1068,0.1064,0.1069,0.1079,0.1081,0.1083,0.1096,0.1094,0.1098,0.1105,0.1109,0.111,0.1111,0.1114,0.1116,0.1099,0.1099,0.1099,0,0.1046,0.1055,0.1054,0.106,0.1063,0.1058,0.1066,0.1068,0.1073,0.1075,0.1072,0.1082,0.1085,0.1094,0.1096,0.1099,0.11,0.1098,0.111,0.1111,0.1112,0.1115,0.1117,0.11,0.11,0.11,0.11,0,0.1064,0.1071,0.1077,0.108,0.1084,0.1091,0.109,0.1093,0.1091,0.1091,0.1098,0.11,0.1105,0.1107,0.1106,0.1115,0.1113,0.111,0.1105,0.1114,0.1117,0.1118,0.11,0.11,0.11,0.11,0,0,0.1088,0.1089,0.1091,0.1091,0.1093,0.1098,0.1104,0.1108,0.111,0.1113,0.1117,0.1124,0.112,0.1123,0.1122,0.1125,0.1133,0.1121,0.1121,0.1122,0.1141,0.1143,0.1145,0.1131,0.1131,0.1132,0.1141,0,0.1102,0.1113,0.111,0.112,0.1125,0.1119,0.1124,0.1126,0.1125,0.1128,0.1128,0.1132,0.1128,0.1129,0.1132,0.1131,0.1137,0.1131,0.1134,0.1134,0.1133,0.1146,0.1149,0.1157,0.1142,0.1142,0.1142,0,0.1121,0.1123,0.1134,0.1133,0.1134,0.1139,0.1141,0.1144,0.1145,0.1144,0.1146,0.1143,0.1148,0.1142,0.1148,0.1144,0.1145,0.1144,0.1145,0.1145,0.1138,0.1145,0.116,0.1161,0.1144,0.1144,0.1144,0,0.1135,0.114,0.1146,0.1147,0.1147,0.115,0.115,0.115,0.1152,0.1153,0.1154,0.1156,0.1158,0.1159,0.1156,0.1153,0.1162,0.1157,0.116,0.116,0.1162,0.1162,0.1176,0.1164,0.1164,0.1164,0.1164,0,0.1151,0.1157,0.1152,0.1156,0.1162,0.1158,0.1164,0.1164,0.1163,0.1166,0.1162,0.1165,0.1162,0.1164,0.1162,0.1166,0.1167,0.1165,0.1165,0.1165,0.1165,0.1166,0.1165,0.1165,0.1165,0.1165,0.1164,0,0.1167,0.1164,0.117,0.1169,0.1168,0.1172,0.1171,0.1174,0.1172,0.1175,0.1176,0.1174,0.1175,0.1173,0.1175,0.1174,0.1179,0.1178,0.1178,0.1178,0.1181,0.118,0.1195,0.1197,0.1185,0.1185,0.1185,0,0.1176,0.1181,0.1179,0.118,0.118,0.1183,0.1183,0.118,0.1181,0.1181,0.1183,0.1185,0.1186,0.1189,0.1187,0.1188,0.1186,0.1191,0.1186,0.1186,0.1185,0.1184,0.1184,0.1192,0.1192,0.1193,0.1193,0,0.1194,0.1191,0.1193,0.1194,0.1195,0.1195,0.1195,0.1197,0.1193,0.1194,0.1195,0.1196,0.1197,0.1198,0.1198,0.1198,0.1194,0.1194,0.1195,0.1195,0.1195,0.1194,0.118,0.1194,0.1194,0.1194,0.1194,0.1194,0.1206,0.1208,0.1207,0.1208,0.1208,0.1207,0.1209,0.1207,0.1208,0.1209,0.1206,0.1208,0.1207,0.1206,0.1206,0.1207,0.1204,0.1206,0.1206,0.1206,0.1206,0.1195,0.1207,0.1207,0.1207,0.1207,0.1207,0,0.1221,0.122,0.1221,0.122,0.1221,0.1217,0.1216,0.1217,0.1218,0.1218,0.1218,0.1219,0.1219,0.1217,0.1217,0.1218,0.1216,0.1218,0.1217,0.1217,0.1209,0.1208,0.1219,0.1219,0.1219,0.1219,0.1219,0.1219,0.1229,0.1233,0.123,0.1233,0.1231,0.1232,0.1232,0.1231,0.123,0.1231,0.1231,0.1229,0.1227,0.1227,0.1227,0.1226,0.1225,0.1228,0.1226,0.1219,0.1218,0.1216,0.1215,0.1228,0.1228,0.1234,0.1234,0.1234]}]]